Погода в Фоминском

Россия / Ярославская область     57°50′31″N   39°34′35″E
темп.,
°C
ветер,
м/с
пор.,
м/с
влажн.,
%
обл.,
%
осадки,
мм/ч
давл.,
гПа
погр.,
м
9 мая, вс
вс900:00+8вюв41197100 5.1 1002677
03:00+8ююз1399100 7.1 1002151
06:00+8зсз3698100 0.0 1003372
09:00+4сз51197100 0.1 1006429
12:00+4ссз61197100 0.2 1010608
15:00+6ссз51086100 0.3 10121006
18:00+8с51169100 0.0 10141242
21:00+4ссз2679100 0.0 1017120
10 мая, пн
пн1000:00+2сз37845 0.0 1020137
03:00+1сз310830 0.0 1023229
06:00+3ссз310740 0.0 1026287
09:00+9с47500 0.0 10271140
12:00+12с34390 0.0 10271564
15:00+13с23380 0.0 10271569
18:00+13с23512 0.0 1028493
21:00+6с11755 0.0 102910
11 мая, вт
вт1100:00+5всв11755 0.0 103010
03:00+4св117449 0.0 103110
06:00+7в126925 0.0 103156
09:00+12в235399 0.0 1031471
12:00+15в3445100 0.0 1031852
15:00+17в3445100 0.0 10301027
18:00+16всв245833 0.0 1029200
21:00+10в22765 0.0 102912
12 мая, ср
ср1200:00+9в22795 0.0 103024
03:00+8в23783 0.0 102939
06:00+10всв27780 0.0 1029174
09:00+16в476598 0.0 1029426
12:00+20вюв586227 0.0 1028938
15:00+21юв58608 0.3 10271376
18:00+20вюв376997 0.1 1026723
21:00+15в368965 0.6 1025101
13 мая, чт
чт1300:00+13в379369 0.1 1025120
03:00+12в399470 0.1 1024166
06:00+13вюв3119099 0.0 1024386
09:00+15юв4108021 0.0 1024620
12:00+21юв61154100 0.0 10231399
15:00+21юв695213 0.0 10221400
18:00+20юв5106525 0.4 10211060
21:00+14вюв3789100 0.4 1021133